DW3557 Weather Reports


time (UTC)temp
C
wind
direction
speed
KPH
gust
KPH
rain 1hr
cm
rain 24hr
cm
rain mn
cm
humidity
%
barometer
mb
20260505153036 11 261 0.0 4.8 0.00 0.00 0.00 91 1013.9
20260505151539 10 261 0.0 6.4 0.00 0.00 0.00 92 1013.9
20260505124518 10 240 0.0 0.0 0.00 0.00 0.00 91 1012.9
20260505123016 10 240 0.0 0.0 0.00 0.00 0.00 91 1012.7
20260505121515 10 240 0.0 0.0 0.00 0.00 0.00 91 1012.7
20260505120016 10 240 0.0 4.8 0.00 0.00 0.00 90 1012.7
20260505114513 10 240 0.0 0.0 0.00 0.00 0.00 90 1012.7
20260505113011 10 240 0.0 4.8 0.00 0.00 0.00 90 1012.6
20260505111521 10 250 0.0 3.2 0.00 0.00 0.00 90 1012.6
20260505101509 10 229 0.0 0.0 0.00 0.00 0.00 89 1012.0
20260505100003 10 229 0.0 1.6 0.00 0.00 0.00 89 1012.1
20260505094502 10 229 0.0 4.8 0.00 0.00 0.00 88 1012.1
20260505093059 11 229 0.0 6.4 0.00 0.00 0.00 87 1011.9
20260505091611 11 228 0.0 3.2 0.00 0.00 0.00 87 1011.8
20260505084604 11 229 0.0 8.0 0.00 0.00 0.00 86 1011.6
20260505083104 11 223 0.0 1.6 0.00 0.00 0.00 86 1011.6
20260505081550 11 223 0.0 0.0 0.00 0.00 0.00 85 1011.4
20260505080049 12 223 0.0 0.0 0.00 0.00 0.00 84 1011.4
20260505074546 12 223 0.0 0.0 0.00 0.00 0.00 85 1011.2
20260505073043 12 223 0.0 1.6 0.00 0.00 0.00 85 1011.0
20260505071541 12 223 0.0 0.0 0.00 0.00 0.00 84 1010.8
20260505070053 12 220 3.2 11.3 0.00 0.00 0.00 83 1010.8
20260505064540 12 262 1.6 6.4 0.00 0.00 0.00 83 1010.6
20260505063038 13 234 0.0 8.0 0.00 0.00 0.00 83 1010.4
20260505061603 13 210 0.0 9.7 0.00 0.00 0.00 82 1010.2
20260505060038 13 209 0.0 8.0 0.00 0.00 0.00 82 1010.0
20260505054545 15 223 3.2 6.4 0.00 0.00 0.00 79 1010.1
20260505053036 15 234 3.2 9.7 0.00 0.00 0.00 78 1009.9
20260505051536 16 246 4.8 11.3 0.00 0.00 0.00 77 1009.8
20260505041534 17 284 0.0 0.0 0.00 0.00 0.00 71 1009.2
20260505040041 18 251 3.2 17.7 0.00 0.00 0.00 70 1008.9
20260505034540 18 239 9.7 17.7 0.00 0.00 0.00 71 1008.6
20260505033133 18 257 6.4 16.1 0.00 0.00 0.00 73 1008.3
20260505031538 18 224 6.4 12.9 0.00 0.00 0.00 73 1008.2
20260505030031 19 246 4.8 17.7 0.00 0.00 0.00 73 1008.1
20260505024530 19 219 9.7 19.3 0.00 0.00 0.00 71 1008.0
20260505023029 20 212 4.8 14.5 0.00 0.00 0.00 70 1007.9
20260505021529 20 219 8.0 17.7 0.00 0.00 0.00 69 1007.9
20260505020036 20 217 6.4 16.1 0.00 0.00 0.00 68 1007.9
20260505014528 20 233 6.4 11.3 0.00 0.00 0.00 67 1007.9
20260505013027 21 169 6.4 16.1 0.00 0.00 0.00 67 1007.9
20260505011529 21 233 8.0 17.7 0.00 0.00 0.00 66 1008.0
20260505010028 21 213 8.0 17.7 0.00 0.00 0.00 65 1008.1
20260505004526 21 250 11.3 17.7 0.00 0.00 0.00 64 1008.2
20260505003026 21 205 3.2 17.7 0.00 0.00 0.00 65 1008.2
20260505001524 21 240 8.0 24.1 0.00 0.00 0.00 64 1008.3
20260505000039 21 222 6.4 19.3 0.00 0.00 0.00 65 1008.3
20260504234525 21 216 6.4 12.9 0.00 0.00 0.00 63 1008.2
20260504233022 21 220 9.7 19.3 0.00 0.00 0.00 63 1008.5
20260504231521 21 174 1.6 14.5 0.00 0.00 0.00 63 1008.6
20260504230020 20 212 11.3 22.5 0.00 0.00 0.00 63 1008.7
20260504224520 21 216 6.4 12.9 0.00 0.00 0.00 62 1008.8
20260504223019 20 210 1.6 14.5 0.00 0.00 0.00 64 1009.0
20260504221525 19 246 4.8 19.3 0.00 0.00 0.00 65 1009.2
20260504220033 18 209 8.0 17.7 0.00 0.00 0.00 66 1009.3
20260504214519 19 259 6.4 19.3 0.00 0.00 0.00 65 1009.4
20260504213017 18 173 3.2 16.1 0.00 0.00 0.00 67 1009.5
20260504211516 17 248 6.4 17.7 0.00 0.00 0.00 70 1009.7
20260504210016 17 225 11.3 19.3 0.00 0.00 0.00 70 1009.9
20260504204521 17 209 6.4 17.7 0.00 0.00 0.00 73 1010.2
20260504203015 16 182 9.7 17.7 0.00 0.00 0.00 74 1010.3
20260504201515 16 213 9.7 16.1 0.00 0.00 0.00 73 1010.3
20260504200014 15 167 6.4 19.3 0.00 0.00 0.00 76 1010.6
20260504194515 15 250 9.7 17.7 0.00 0.00 0.00 76 1010.7
20260504193015 15 219 4.8 19.3 0.00 0.00 0.00 79 1010.7
20260504191512 13 220 9.7 16.1 0.00 0.00 0.00 80 1010.7
20260504190013 13 169 4.8 17.7 0.00 0.00 0.00 81 1010.7
20260504184511 13 224 12.9 20.9 0.00 0.00 0.00 82 1010.9
20260504183010 13 192 8.0 17.7 0.00 0.00 0.00 83 1010.9
20260504181516 12 263 3.2 16.1 0.00 0.00 0.00 85 1010.8
20260504180010 12 202 9.7 22.5 0.00 0.00 0.00 86 1010.8
20260504174508 12 188 6.4 20.9 0.00 0.00 0.00 86 1010.8
20260504173006 12 262 6.4 16.1 0.00 0.00 0.00 87 1010.7
20260504171508 12 217 8.0 14.5 0.00 0.00 0.00 87 1010.6